Year,Month,Day,Hour,Minute,Value (Times are PST for temperature in C)
2015,05,17,00,00,10.80
2015,05,17,00,01,10.80
2015,05,17,00,02,10.80
2015,05,17,00,03,10.80
2015,05,17,00,04,10.80
2015,05,17,00,05,10.80
2015,05,17,00,06,10.80
2015,05,17,00,07,10.80
2015,05,17,00,08,10.80
2015,05,17,00,09,10.80
2015,05,17,00,10,10.80
2015,05,17,00,11,10.80
2015,05,17,00,12,10.80
2015,05,17,00,13,10.80
2015,05,17,00,14,10.80
2015,05,17,00,15,10.80
2015,05,17,00,16,10.80
2015,05,17,00,17,10.80
2015,05,17,00,18,10.80
2015,05,17,00,19,10.80
2015,05,17,00,20,10.80
2015,05,17,00,21,10.80
2015,05,17,00,22,10.80
2015,05,17,00,23,10.80
2015,05,17,00,24,10.80
2015,05,17,00,25,10.70
2015,05,17,00,26,10.70
2015,05,17,00,27,10.70
2015,05,17,00,28,10.70
2015,05,17,00,29,10.70
2015,05,17,00,30,10.70
2015,05,17,00,31,10.70
2015,05,17,00,32,10.70
2015,05,17,00,33,10.70
2015,05,17,00,34,10.70
2015,05,17,00,35,10.70
2015,05,17,00,36,10.70
2015,05,17,00,37,10.70
2015,05,17,00,38,10.70
2015,05,17,00,39,10.70
2015,05,17,00,40,10.70
2015,05,17,00,41,10.70
2015,05,17,00,42,10.60
2015,05,17,00,43,10.60
2015,05,17,00,44,10.60
2015,05,17,00,45,10.60
2015,05,17,00,46,10.60
2015,05,17,00,47,10.60
2015,05,17,00,48,10.60
2015,05,17,00,49,10.60
2015,05,17,00,50,10.60
2015,05,17,00,51,10.60
2015,05,17,00,52,10.60
2015,05,17,00,53,10.60
2015,05,17,00,54,10.60
2015,05,17,00,55,10.60
2015,05,17,00,56,10.60
2015,05,17,00,57,10.60
2015,05,17,00,58,10.60
2015,05,17,00,59,10.60
2015,05,17,01,00,10.60
2015,05,17,01,01,10.60
2015,05,17,01,02,10.60
2015,05,17,01,03,10.60
2015,05,17,01,04,10.60
2015,05,17,01,05,10.60
2015,05,17,01,06,10.60
2015,05,17,01,07,10.60
2015,05,17,01,08,10.60
2015,05,17,01,09,10.50
2015,05,17,01,10,10.50
2015,05,17,01,11,10.50
2015,05,17,01,12,10.50
2015,05,17,01,13,10.50
2015,05,17,01,14,10.50
2015,05,17,01,15,10.50
2015,05,17,01,16,10.50
2015,05,17,01,17,10.50
2015,05,17,01,18,10.50
2015,05,17,01,19,10.40
2015,05,17,01,20,10.40
2015,05,17,01,21,10.40
2015,05,17,01,22,10.40
2015,05,17,01,23,10.40
2015,05,17,01,24,10.40
2015,05,17,01,25,10.40
2015,05,17,01,26,10.40
2015,05,17,01,27,10.40
2015,05,17,01,28,10.40
2015,05,17,01,29,10.40
2015,05,17,01,30,10.40
2015,05,17,01,31,10.40
2015,05,17,01,32,10.40
2015,05,17,01,33,10.40
2015,05,17,01,34,10.40
2015,05,17,01,35,10.40
2015,05,17,01,36,10.40
2015,05,17,01,37,10.40
2015,05,17,01,38,10.40
2015,05,17,01,39,10.40
2015,05,17,01,40,10.40
2015,05,17,01,41,10.40
2015,05,17,01,42,10.40
2015,05,17,01,43,10.40
2015,05,17,01,44,10.40
2015,05,17,01,45,10.40
2015,05,17,01,46,10.40
2015,05,17,01,47,10.40
2015,05,17,01,48,10.40
2015,05,17,01,49,10.40
2015,05,17,01,50,10.40
2015,05,17,01,51,10.40
2015,05,17,01,52,10.40
2015,05,17,01,53,10.40
2015,05,17,01,54,10.40
2015,05,17,01,55,10.40
2015,05,17,01,56,10.40
2015,05,17,01,57,10.40
2015,05,17,01,58,10.40
2015,05,17,01,59,10.40
2015,05,17,02,00,10.40
2015,05,17,02,01,10.40
2015,05,17,02,02,10.40
2015,05,17,02,03,10.40
2015,05,17,02,04,10.40
2015,05,17,02,05,10.40
2015,05,17,02,06,10.40
2015,05,17,02,07,10.40
2015,05,17,02,08,10.40
2015,05,17,02,09,10.40
2015,05,17,02,10,10.40
2015,05,17,02,11,10.40
2015,05,17,02,12,10.40
2015,05,17,02,13,10.40
2015,05,17,02,14,10.40
2015,05,17,02,15,10.50
2015,05,17,02,16,10.50
2015,05,17,02,17,10.50
2015,05,17,02,18,10.50
2015,05,17,02,19,10.50
2015,05,17,02,20,10.60
2015,05,17,02,21,10.60
2015,05,17,02,22,10.60
2015,05,17,02,23,10.60
2015,05,17,02,24,10.60
2015,05,17,02,25,10.60
2015,05,17,02,26,10.60
2015,05,17,02,27,10.60
2015,05,17,02,28,10.60
2015,05,17,02,29,10.60
2015,05,17,02,30,10.60
2015,05,17,02,31,10.60
2015,05,17,02,32,10.60
2015,05,17,02,33,10.60
2015,05,17,02,34,10.60
2015,05,17,02,35,10.60
2015,05,17,02,36,10.60
2015,05,17,02,37,10.60
2015,05,17,02,38,10.60
2015,05,17,02,39,10.60
2015,05,17,02,40,10.60
2015,05,17,02,41,10.60
2015,05,17,02,42,10.60
2015,05,17,02,43,10.70
2015,05,17,02,44,10.60
2015,05,17,02,45,10.70
2015,05,17,02,46,10.70
2015,05,17,02,47,10.70
2015,05,17,02,48,10.70
2015,05,17,02,49,10.70
2015,05,17,02,50,10.70
2015,05,17,02,51,10.70
2015,05,17,02,52,10.70
2015,05,17,02,53,10.70
2015,05,17,02,54,10.70
2015,05,17,02,55,10.70
2015,05,17,02,56,10.70
2015,05,17,02,57,10.70
2015,05,17,02,58,10.60
2015,05,17,02,59,10.60
2015,05,17,03,00,10.70
2015,05,17,03,01,10.60
2015,05,17,03,02,10.70
2015,05,17,03,03,10.70
2015,05,17,03,04,10.70
2015,05,17,03,05,10.70
2015,05,17,03,06,10.70
2015,05,17,03,07,10.70
2015,05,17,03,08,10.70
2015,05,17,03,09,10.70
2015,05,17,03,10,10.70
2015,05,17,03,11,10.70
2015,05,17,03,12,10.70
2015,05,17,03,13,10.70
2015,05,17,03,14,10.70
2015,05,17,03,15,10.70
2015,05,17,03,16,10.70
2015,05,17,03,17,10.70
2015,05,17,03,18,10.70
2015,05,17,03,19,10.70
2015,05,17,03,20,10.70
2015,05,17,03,21,10.70
2015,05,17,03,22,10.70
2015,05,17,03,23,10.70
2015,05,17,03,24,10.70
2015,05,17,03,25,10.70
2015,05,17,03,26,10.70
2015,05,17,03,27,10.70
2015,05,17,03,28,10.70
2015,05,17,03,29,10.70
2015,05,17,03,30,10.70
2015,05,17,03,31,10.70
2015,05,17,03,32,10.70
2015,05,17,03,33,10.70
2015,05,17,03,34,10.70
2015,05,17,03,35,10.70
2015,05,17,03,36,10.70
2015,05,17,03,37,10.70
2015,05,17,03,38,10.70
2015,05,17,03,39,10.70
2015,05,17,03,40,10.70
2015,05,17,03,41,10.70
2015,05,17,03,42,10.70
2015,05,17,03,43,10.70
2015,05,17,03,44,10.70
2015,05,17,03,45,10.70
2015,05,17,03,46,10.70
2015,05,17,03,47,10.70
2015,05,17,03,48,10.70
2015,05,17,03,49,10.70
2015,05,17,03,50,10.80
2015,05,17,03,51,10.70
2015,05,17,03,52,10.70
2015,05,17,03,53,10.70
2015,05,17,03,54,10.70
2015,05,17,03,55,10.70
2015,05,17,03,56,10.70
2015,05,17,03,57,10.70
2015,05,17,03,58,10.80
2015,05,17,03,59,10.70
2015,05,17,04,00,10.70
2015,05,17,04,01,10.70
2015,05,17,04,02,10.70
2015,05,17,04,03,10.80
2015,05,17,04,04,10.80
2015,05,17,04,05,10.80
2015,05,17,04,06,10.80
2015,05,17,04,07,10.80
2015,05,17,04,08,10.80
2015,05,17,04,09,10.80
2015,05,17,04,10,10.80
2015,05,17,04,11,10.80
2015,05,17,04,12,10.80
2015,05,17,04,13,10.80
2015,05,17,04,14,10.80
2015,05,17,04,15,10.80
2015,05,17,04,16,10.80
2015,05,17,04,17,10.80
2015,05,17,04,18,10.80
2015,05,17,04,19,10.80
2015,05,17,04,20,10.80
2015,05,17,04,21,10.80
2015,05,17,04,22,10.80
2015,05,17,04,23,10.80
2015,05,17,04,24,10.80
2015,05,17,04,25,10.80
2015,05,17,04,26,10.80
2015,05,17,04,27,10.80
2015,05,17,04,28,10.80
2015,05,17,04,29,10.80
2015,05,17,04,30,10.80
2015,05,17,04,31,10.80
2015,05,17,04,32,10.80
2015,05,17,04,33,10.80
2015,05,17,04,34,10.80
2015,05,17,04,35,10.80
2015,05,17,04,36,10.80
2015,05,17,04,37,10.80
2015,05,17,04,38,10.80
2015,05,17,04,39,10.80
2015,05,17,04,40,10.80
2015,05,17,04,41,10.80
2015,05,17,04,42,10.80
2015,05,17,04,43,10.80
2015,05,17,04,44,10.80
2015,05,17,04,45,10.80
2015,05,17,04,46,10.80
2015,05,17,04,47,10.80
2015,05,17,04,48,10.80
2015,05,17,04,49,10.80
2015,05,17,04,50,10.80
2015,05,17,04,51,10.80
2015,05,17,04,52,10.80
2015,05,17,04,53,10.80
2015,05,17,04,54,10.80
2015,05,17,04,55,10.80
2015,05,17,04,56,10.80
2015,05,17,04,57,10.80
2015,05,17,04,58,10.80
2015,05,17,04,59,10.80
2015,05,17,05,00,10.80
2015,05,17,05,01,10.80
2015,05,17,05,02,10.80
2015,05,17,05,03,10.80
2015,05,17,05,04,10.80
2015,05,17,05,05,10.80
2015,05,17,05,06,10.80
2015,05,17,05,07,10.80
2015,05,17,05,08,10.80
2015,05,17,05,09,10.80
2015,05,17,05,10,10.80
2015,05,17,05,11,10.80
2015,05,17,05,12,10.80
2015,05,17,05,13,10.80
2015,05,17,05,14,10.80
2015,05,17,05,15,10.80
2015,05,17,05,16,10.80
2015,05,17,05,17,10.80
2015,05,17,05,18,10.80
2015,05,17,05,19,10.80
2015,05,17,05,20,10.80
2015,05,17,05,21,10.80
2015,05,17,05,22,10.80
2015,05,17,05,23,10.80
2015,05,17,05,24,10.80
2015,05,17,05,25,10.70
2015,05,17,05,26,10.70
2015,05,17,05,27,10.70
2015,05,17,05,28,10.70
2015,05,17,05,29,10.70
2015,05,17,05,30,10.70
2015,05,17,05,31,10.70
2015,05,17,05,32,10.70
2015,05,17,05,33,10.70
2015,05,17,05,34,10.70
2015,05,17,05,35,10.70
2015,05,17,05,36,10.70
2015,05,17,05,37,10.70
2015,05,17,05,38,10.70
2015,05,17,05,39,10.70
2015,05,17,05,40,10.70
2015,05,17,05,41,10.70
2015,05,17,05,42,10.70
2015,05,17,05,43,10.70
2015,05,17,05,44,10.70
2015,05,17,05,45,10.70
2015,05,17,05,46,10.70
2015,05,17,05,47,10.70
2015,05,17,05,48,10.70
2015,05,17,05,49,10.70
2015,05,17,05,50,10.70
2015,05,17,05,51,10.70
2015,05,17,05,52,10.70
2015,05,17,05,53,10.70
2015,05,17,05,54,10.70
2015,05,17,05,55,10.70
2015,05,17,05,56,10.70
2015,05,17,05,57,10.80
2015,05,17,05,58,10.80
2015,05,17,05,59,10.80
2015,05,17,06,00,10.80
2015,05,17,06,01,10.80
2015,05,17,06,02,10.80
2015,05,17,06,03,10.80
2015,05,17,06,04,10.80
2015,05,17,06,05,10.80
2015,05,17,06,06,10.80
2015,05,17,06,07,10.80
2015,05,17,06,08,10.80
2015,05,17,06,09,10.80
2015,05,17,06,10,10.80
2015,05,17,06,11,10.80
2015,05,17,06,12,10.80
2015,05,17,06,13,10.80
2015,05,17,06,14,10.80
2015,05,17,06,15,10.80
2015,05,17,06,16,10.80
2015,05,17,06,17,10.80
2015,05,17,06,18,10.80
2015,05,17,06,19,10.80
2015,05,17,06,20,10.80
2015,05,17,06,21,10.80
2015,05,17,06,22,10.80
2015,05,17,06,23,10.80
2015,05,17,06,24,10.80
2015,05,17,06,25,10.80
2015,05,17,06,26,10.80
2015,05,17,06,27,10.80
2015,05,17,06,28,10.80
2015,05,17,06,29,10.80
2015,05,17,06,30,10.80
2015,05,17,06,31,10.80
2015,05,17,06,32,10.80
2015,05,17,06,33,10.80
2015,05,17,06,34,10.80
2015,05,17,06,35,10.80
2015,05,17,06,36,10.90
2015,05,17,06,37,10.90
2015,05,17,06,38,10.90
2015,05,17,06,39,10.90
2015,05,17,06,40,10.90
2015,05,17,06,41,10.90
2015,05,17,06,42,10.90
2015,05,17,06,43,10.90
2015,05,17,06,44,10.90
2015,05,17,06,45,10.90
2015,05,17,06,46,10.90
2015,05,17,06,47,10.90
2015,05,17,06,48,10.90
2015,05,17,06,49,11.00
2015,05,17,06,50,11.00
2015,05,17,06,51,11.00
2015,05,17,06,52,11.00
2015,05,17,06,53,11.00
2015,05,17,06,54,11.00
2015,05,17,06,55,11.00
2015,05,17,06,56,11.00
2015,05,17,06,57,11.10
2015,05,17,06,58,11.10
2015,05,17,06,59,11.10
2015,05,17,07,00,11.10
2015,05,17,07,01,11.10
2015,05,17,07,02,11.10
2015,05,17,07,03,11.10
2015,05,17,07,04,11.10
2015,05,17,07,05,11.10
2015,05,17,07,06,11.10
2015,05,17,07,07,11.10
2015,05,17,07,08,11.10
2015,05,17,07,09,11.10
2015,05,17,07,10,11.10
2015,05,17,07,11,11.20
2015,05,17,07,12,11.20
2015,05,17,07,13,11.20
2015,05,17,07,14,11.20
2015,05,17,07,15,11.20
2015,05,17,07,16,11.20
2015,05,17,07,17,11.20
2015,05,17,07,18,11.20
2015,05,17,07,19,11.20
2015,05,17,07,20,11.20
2015,05,17,07,21,11.20
2015,05,17,07,22,11.20
2015,05,17,07,23,11.20
2015,05,17,07,24,11.20
2015,05,17,07,25,11.20
2015,05,17,07,26,11.20
2015,05,17,07,27,11.20
2015,05,17,07,28,11.30
2015,05,17,07,29,11.30
2015,05,17,07,30,11.30
2015,05,17,07,31,11.30
2015,05,17,07,32,11.30
2015,05,17,07,33,11.30
2015,05,17,07,34,11.30
2015,05,17,07,35,11.30
2015,05,17,07,36,11.30
2015,05,17,07,37,11.30
2015,05,17,07,38,11.30
2015,05,17,07,39,11.40
2015,05,17,07,40,11.40
2015,05,17,07,41,11.40
2015,05,17,07,42,11.40
2015,05,17,07,43,11.40
2015,05,17,07,44,11.50
2015,05,17,07,45,11.50
2015,05,17,07,46,11.50
2015,05,17,07,47,11.50
2015,05,17,07,48,11.60
2015,05,17,07,49,11.60
2015,05,17,07,50,11.60
2015,05,17,07,51,11.60
2015,05,17,07,52,11.60
2015,05,17,07,53,11.70
2015,05,17,07,54,11.70
2015,05,17,07,55,11.70
2015,05,17,07,56,11.70
2015,05,17,07,57,11.70
2015,05,17,07,58,11.70
2015,05,17,07,59,11.70
2015,05,17,08,00,11.70
2015,05,17,08,01,11.70
2015,05,17,08,02,11.80
2015,05,17,08,03,11.80
2015,05,17,08,04,11.80
2015,05,17,08,05,11.80
2015,05,17,08,06,11.80
2015,05,17,08,07,11.80
2015,05,17,08,08,11.90
2015,05,17,08,09,11.90
2015,05,17,08,10,11.90
2015,05,17,08,11,12.00
2015,05,17,08,12,12.00
2015,05,17,08,13,12.00
2015,05,17,08,14,12.10
2015,05,17,08,15,12.10
2015,05,17,08,16,12.10
2015,05,17,08,17,12.10
2015,05,17,08,18,12.20
2015,05,17,08,19,12.20
2015,05,17,08,20,12.20
2015,05,17,08,21,12.20
2015,05,17,08,22,12.30
2015,05,17,08,23,12.30
2015,05,17,08,24,12.30
2015,05,17,08,25,12.40
2015,05,17,08,26,12.40
2015,05,17,08,27,12.40
2015,05,17,08,28,12.50
2015,05,17,08,29,12.50
2015,05,17,08,30,12.60
2015,05,17,08,31,12.60
2015,05,17,08,32,12.60
2015,05,17,08,33,12.70
2015,05,17,08,34,12.70
2015,05,17,08,35,12.70
2015,05,17,08,36,12.70
2015,05,17,08,37,12.80
2015,05,17,08,38,12.80
2015,05,17,08,39,12.80
2015,05,17,08,40,12.80
2015,05,17,08,41,12.90
2015,05,17,08,42,12.90
2015,05,17,08,43,12.90
2015,05,17,08,44,12.90
2015,05,17,08,45,12.90
2015,05,17,08,46,13.00
2015,05,17,08,47,13.00
2015,05,17,08,48,13.00
2015,05,17,08,49,13.10
2015,05,17,08,50,13.20
2015,05,17,08,51,13.20
2015,05,17,08,52,13.30
2015,05,17,08,53,13.30
2015,05,17,08,54,13.30
2015,05,17,08,55,13.30
2015,05,17,08,56,13.30
2015,05,17,08,57,13.30
2015,05,17,08,58,13.40
2015,05,17,08,59,13.40
2015,05,17,09,00,13.50
2015,05,17,09,01,13.50
2015,05,17,09,02,13.50
2015,05,17,09,03,13.60
2015,05,17,09,04,13.60
2015,05,17,09,05,13.60
2015,05,17,09,06,13.60
2015,05,17,09,07,13.60
2015,05,17,09,08,13.60
2015,05,17,09,09,13.70
2015,05,17,09,10,13.70
2015,05,17,09,11,13.70
2015,05,17,09,12,13.70
2015,05,17,09,13,13.70
2015,05,17,09,14,13.70
2015,05,17,09,15,13.70
2015,05,17,09,16,13.80
2015,05,17,09,17,13.80
2015,05,17,09,18,13.80
2015,05,17,09,19,13.80
2015,05,17,09,20,13.80
2015,05,17,09,21,13.80
2015,05,17,09,22,13.80
2015,05,17,09,23,13.90
2015,05,17,09,24,13.90
2015,05,17,09,25,13.90
2015,05,17,09,26,13.90
2015,05,17,09,27,13.90
2015,05,17,09,28,13.90
2015,05,17,09,29,13.80
2015,05,17,09,30,13.80
2015,05,17,09,31,13.80
2015,05,17,09,32,13.80
2015,05,17,09,33,13.80
2015,05,17,09,34,13.80
2015,05,17,09,35,13.90
2015,05,17,09,36,13.90
2015,05,17,09,37,13.90
2015,05,17,09,38,13.90
2015,05,17,09,39,13.90
2015,05,17,09,40,13.90
2015,05,17,09,41,13.90
2015,05,17,09,42,13.90
2015,05,17,09,43,13.90
2015,05,17,09,44,14.00
2015,05,17,09,45,14.00
2015,05,17,09,46,14.10
2015,05,17,09,47,14.10
2015,05,17,09,48,14.00
2015,05,17,09,49,14.00
2015,05,17,09,50,14.00
2015,05,17,09,51,14.00
2015,05,17,09,52,14.00
2015,05,17,09,53,14.00
2015,05,17,09,54,14.10
2015,05,17,09,55,14.10
2015,05,17,09,56,14.10
2015,05,17,09,57,14.10
2015,05,17,09,58,14.20
2015,05,17,09,59,14.20
2015,05,17,10,00,14.20
2015,05,17,10,01,14.30
2015,05,17,10,02,14.30
2015,05,17,10,03,14.30
2015,05,17,10,04,14.40
2015,05,17,10,05,14.30
2015,05,17,10,06,14.30
2015,05,17,10,07,14.40
2015,05,17,10,08,14.40
2015,05,17,10,09,14.40
2015,05,17,10,10,14.40
2015,05,17,10,11,14.40
2015,05,17,10,12,14.50
2015,05,17,10,13,14.50
2015,05,17,10,14,14.60
2015,05,17,10,15,14.70
2015,05,17,10,16,14.70
2015,05,17,10,17,14.80
2015,05,17,10,18,14.80
2015,05,17,10,19,14.80
2015,05,17,10,20,14.90
2015,05,17,10,21,14.90
2015,05,17,10,22,14.90
2015,05,17,10,23,14.90
2015,05,17,10,24,14.90
2015,05,17,10,25,14.90
2015,05,17,10,26,14.90
2015,05,17,10,27,14.80
2015,05,17,10,28,14.80
2015,05,17,10,29,14.80
2015,05,17,10,30,14.80
2015,05,17,10,31,14.80
2015,05,17,10,32,14.90
2015,05,17,10,33,14.90
2015,05,17,10,34,15.00
2015,05,17,10,35,15.00
2015,05,17,10,36,15.10
2015,05,17,10,37,15.10
2015,05,17,10,38,15.10
2015,05,17,10,39,15.10
2015,05,17,10,40,15.00
2015,05,17,10,41,15.00
2015,05,17,10,42,15.00
2015,05,17,10,43,14.90
2015,05,17,10,44,14.90
2015,05,17,10,45,14.80
2015,05,17,10,46,14.80
2015,05,17,10,47,14.70
2015,05,17,10,48,14.60
2015,05,17,10,49,14.50
2015,05,17,10,50,14.40
2015,05,17,10,51,14.40
2015,05,17,10,52,14.30
2015,05,17,10,53,14.30
2015,05,17,10,54,14.30
2015,05,17,10,55,14.30
2015,05,17,10,56,14.40
2015,05,17,10,57,14.40
2015,05,17,10,58,14.50
2015,05,17,10,59,14.50
2015,05,17,11,00,14.50
2015,05,17,11,01,14.60
2015,05,17,11,02,14.60
2015,05,17,11,03,14.60
2015,05,17,11,04,14.60
2015,05,17,11,05,14.70
2015,05,17,11,06,14.70
2015,05,17,11,07,14.70
2015,05,17,11,08,14.70
2015,05,17,11,09,14.70
2015,05,17,11,10,14.70
2015,05,17,11,11,14.70
2015,05,17,11,12,14.70
2015,05,17,11,13,14.70
2015,05,17,11,14,14.70
2015,05,17,11,15,14.70
2015,05,17,11,16,14.60
2015,05,17,11,17,14.60
2015,05,17,11,18,14.70
2015,05,17,11,19,14.70
2015,05,17,11,20,14.80
2015,05,17,11,21,14.80
2015,05,17,11,22,14.80
2015,05,17,11,23,14.90
2015,05,17,11,24,15.00
2015,05,17,11,25,15.10
2015,05,17,11,26,15.20
2015,05,17,11,27,15.20
2015,05,17,11,28,15.20
2015,05,17,11,29,15.30
2015,05,17,11,30,15.30
2015,05,17,11,31,15.40
2015,05,17,11,32,15.40
2015,05,17,11,33,15.50
2015,05,17,11,34,15.60
2015,05,17,11,35,15.70
2015,05,17,11,36,15.70
2015,05,17,11,37,15.70
2015,05,17,11,38,15.80
2015,05,17,11,39,15.80
2015,05,17,11,40,15.70
2015,05,17,11,41,15.70
2015,05,17,11,42,15.70
2015,05,17,11,43,15.70
2015,05,17,11,44,15.70
2015,05,17,11,45,15.70
2015,05,17,11,46,15.70
2015,05,17,11,47,15.80
2015,05,17,11,48,15.90
2015,05,17,11,49,16.00
2015,05,17,11,50,16.10
2015,05,17,11,51,16.20
2015,05,17,11,52,16.20
2015,05,17,11,53,16.20
2015,05,17,11,54,16.20
2015,05,17,11,55,16.30
2015,05,17,11,56,16.30
2015,05,17,11,57,16.30
2015,05,17,11,58,16.30
2015,05,17,11,59,16.30
2015,05,17,12,00,16.30
2015,05,17,12,01,16.30
2015,05,17,12,02,16.30
2015,05,17,12,03,16.20
2015,05,17,12,04,16.20
2015,05,17,12,05,16.30
2015,05,17,12,06,16.20
2015,05,17,12,07,16.20
2015,05,17,12,08,16.10
2015,05,17,12,09,16.10
2015,05,17,12,10,16.00
2015,05,17,12,11,15.90
2015,05,17,12,12,15.90
2015,05,17,12,13,15.80
2015,05,17,12,14,15.80
2015,05,17,12,15,15.80
2015,05,17,12,16,15.70
2015,05,17,12,17,15.60
2015,05,17,12,18,15.60
2015,05,17,12,19,15.60
2015,05,17,12,20,15.70
2015,05,17,12,21,15.70
2015,05,17,12,22,15.80
2015,05,17,12,23,15.80
2015,05,17,12,24,15.90
2015,05,17,12,25,16.00
2015,05,17,12,26,16.10
2015,05,17,12,27,16.20
2015,05,17,12,28,16.20
2015,05,17,12,29,16.20
2015,05,17,12,30,16.20
2015,05,17,12,31,16.30
2015,05,17,12,32,16.30
2015,05,17,12,33,16.30
2015,05,17,12,34,16.40
2015,05,17,12,35,16.40
2015,05,17,12,36,16.40
2015,05,17,12,37,16.40
2015,05,17,12,38,16.40
2015,05,17,12,39,16.50
2015,05,17,12,40,16.60
2015,05,17,12,41,16.60
2015,05,17,12,42,16.70
2015,05,17,12,43,16.70
2015,05,17,12,44,16.70
2015,05,17,12,45,16.70
2015,05,17,12,46,16.70
2015,05,17,12,47,16.80
2015,05,17,12,48,16.90
2015,05,17,12,49,16.90
2015,05,17,12,50,17.00
2015,05,17,12,51,17.10
2015,05,17,12,52,17.10
2015,05,17,12,53,17.10
2015,05,17,12,54,17.10
2015,05,17,12,55,17.10
2015,05,17,12,56,17.10
2015,05,17,12,57,17.00
2015,05,17,12,58,17.00
2015,05,17,12,59,16.90
2015,05,17,13,00,16.90
2015,05,17,13,01,16.80
2015,05,17,13,02,16.70
2015,05,17,13,03,16.50
2015,05,17,13,04,16.40
2015,05,17,13,05,16.30
2015,05,17,13,06,16.20
2015,05,17,13,07,16.10
2015,05,17,13,08,16.00
2015,05,17,13,09,16.00
2015,05,17,13,10,16.00
2015,05,17,13,11,16.10
2015,05,17,13,12,16.10
2015,05,17,13,13,16.10
2015,05,17,13,14,16.10
2015,05,17,13,15,16.10
2015,05,17,13,16,16.10
2015,05,17,13,17,16.10
2015,05,17,13,18,16.20
2015,05,17,13,19,16.30
2015,05,17,13,20,16.30
2015,05,17,13,21,16.30
2015,05,17,13,22,16.40
2015,05,17,13,23,16.50
2015,05,17,13,24,16.60
2015,05,17,13,25,16.70
2015,05,17,13,26,16.60
2015,05,17,13,27,16.60
2015,05,17,13,28,16.60
2015,05,17,13,29,16.60
2015,05,17,13,30,16.70
2015,05,17,13,31,16.60
2015,05,17,13,32,16.60
2015,05,17,13,33,16.60
2015,05,17,13,34,16.60
2015,05,17,13,35,16.70
2015,05,17,13,36,16.70
2015,05,17,13,37,16.70
2015,05,17,13,38,16.80
2015,05,17,13,39,16.90
2015,05,17,13,40,16.90
2015,05,17,13,41,16.90
2015,05,17,13,42,16.90
2015,05,17,13,43,16.90
2015,05,17,13,44,16.90
2015,05,17,13,45,17.00
2015,05,17,13,46,17.00
2015,05,17,13,47,17.10
2015,05,17,13,48,17.20
2015,05,17,13,49,17.30
2015,05,17,13,50,17.40
2015,05,17,13,51,17.40
2015,05,17,13,52,17.40
2015,05,17,13,53,17.40
2015,05,17,13,54,17.30
2015,05,17,13,55,17.30
2015,05,17,13,56,17.30
2015,05,17,13,57,17.40
2015,05,17,13,58,17.40
2015,05,17,13,59,17.50
2015,05,17,14,00,17.50
2015,05,17,14,01,17.60
2015,05,17,14,02,17.70
2015,05,17,14,03,17.70
2015,05,17,14,04,17.80
2015,05,17,14,05,17.80
2015,05,17,14,06,17.90
2015,05,17,14,07,18.00
2015,05,17,14,08,18.10
2015,05,17,14,09,18.20
2015,05,17,14,10,18.30
2015,05,17,14,11,18.30
2015,05,17,14,12,18.30
2015,05,17,14,13,18.30
2015,05,17,14,14,18.30
2015,05,17,14,15,18.20
2015,05,17,14,16,18.10
2015,05,17,14,17,18.10
2015,05,17,14,18,18.10
2015,05,17,14,19,18.20
2015,05,17,14,20,18.20
2015,05,17,14,21,18.20
2015,05,17,14,22,18.20
2015,05,17,14,23,18.20
2015,05,17,14,24,18.10
2015,05,17,14,25,18.10
2015,05,17,14,26,18.10
2015,05,17,14,27,18.10
2015,05,17,14,28,18.10
2015,05,17,14,29,18.10
2015,05,17,14,30,18.10
2015,05,17,14,31,18.10
2015,05,17,14,32,18.10
2015,05,17,14,33,18.10
2015,05,17,14,34,18.20
2015,05,17,14,35,18.20
2015,05,17,14,36,18.20
2015,05,17,14,37,18.20
2015,05,17,14,38,18.20
2015,05,17,14,39,18.10
2015,05,17,14,40,18.10
2015,05,17,14,41,18.10
2015,05,17,14,42,18.20
2015,05,17,14,43,18.20
2015,05,17,14,44,18.20
2015,05,17,14,45,18.10
2015,05,17,14,46,18.00
2015,05,17,14,47,18.00
2015,05,17,14,48,18.00
2015,05,17,14,49,18.10
2015,05,17,14,50,18.10
2015,05,17,14,51,18.20
2015,05,17,14,52,18.20
2015,05,17,14,53,18.10
2015,05,17,14,54,18.10
2015,05,17,14,55,18.10
2015,05,17,14,56,18.20
2015,05,17,14,57,18.20
2015,05,17,14,58,18.30
2015,05,17,14,59,18.40
2015,05,17,15,00,18.40
2015,05,17,15,01,18.40
2015,05,17,15,02,18.40
2015,05,17,15,03,18.40
2015,05,17,15,04,18.50
2015,05,17,15,05,18.50
2015,05,17,15,06,18.50
2015,05,17,15,07,18.60
2015,05,17,15,08,18.50
2015,05,17,15,09,18.50
2015,05,17,15,10,18.50
2015,05,17,15,11,18.40
2015,05,17,15,12,18.40
2015,05,17,15,13,18.50
2015,05,17,15,14,18.50
2015,05,17,15,15,18.60
2015,05,17,15,16,18.70
2015,05,17,15,17,18.80
2015,05,17,15,18,18.90
2015,05,17,15,19,19.00
2015,05,17,15,20,19.00
2015,05,17,15,21,19.10
2015,05,17,15,22,19.20
2015,05,17,15,23,19.20
2015,05,17,15,24,19.30
2015,05,17,15,25,19.30
2015,05,17,15,26,19.30
2015,05,17,15,27,19.30
2015,05,17,15,28,19.30
2015,05,17,15,29,19.30
2015,05,17,15,30,19.30
2015,05,17,15,31,19.30
2015,05,17,15,32,19.30
2015,05,17,15,33,19.20
2015,05,17,15,34,19.30
2015,05,17,15,35,19.40
2015,05,17,15,36,19.50
2015,05,17,15,37,19.50
2015,05,17,15,38,19.60
2015,05,17,15,39,19.60
2015,05,17,15,40,19.70
2015,05,17,15,41,19.60
2015,05,17,15,42,19.60
2015,05,17,15,43,19.70
2015,05,17,15,44,19.70
2015,05,17,15,45,19.70
2015,05,17,15,46,19.70
2015,05,17,15,47,19.70
2015,05,17,15,48,19.60
2015,05,17,15,49,19.70
2015,05,17,15,50,19.70
2015,05,17,15,51,19.70
2015,05,17,15,52,19.70
2015,05,17,15,53,19.80
2015,05,17,15,54,19.80
2015,05,17,15,55,19.80
2015,05,17,15,56,19.80
2015,05,17,15,57,19.70
2015,05,17,15,58,19.60
2015,05,17,15,59,19.60
2015,05,17,16,00,19.40
2015,05,17,16,01,19.40
2015,05,17,16,02,19.30
2015,05,17,16,03,19.20
2015,05,17,16,04,19.20
2015,05,17,16,05,19.30
2015,05,17,16,06,19.30
2015,05,17,16,07,19.30
2015,05,17,16,08,19.30
2015,05,17,16,09,19.40
2015,05,17,16,10,19.40
2015,05,17,16,11,19.40
2015,05,17,16,12,19.40
2015,05,17,16,13,19.40
2015,05,17,16,14,19.40
2015,05,17,16,15,19.50
2015,05,17,16,16,19.60
2015,05,17,16,17,19.70
2015,05,17,16,18,19.70
2015,05,17,16,19,19.80
2015,05,17,16,20,19.90
2015,05,17,16,21,19.90
2015,05,17,16,22,19.90
2015,05,17,16,23,19.90
2015,05,17,16,24,19.80
2015,05,17,16,25,19.80
2015,05,17,16,26,19.80
2015,05,17,16,27,19.80
2015,05,17,16,28,19.80
2015,05,17,16,29,19.80
2015,05,17,16,30,19.90
2015,05,17,16,31,19.90
2015,05,17,16,32,19.90
2015,05,17,16,33,20.00
2015,05,17,16,34,20.00
2015,05,17,16,35,20.10
2015,05,17,16,36,20.20
2015,05,17,16,37,20.20
2015,05,17,16,38,20.20
2015,05,17,16,39,20.10
2015,05,17,16,40,20.00
2015,05,17,16,41,19.90
2015,05,17,16,42,19.80
2015,05,17,16,43,19.70
2015,05,17,16,44,19.60
2015,05,17,16,45,19.60
2015,05,17,16,46,19.50
2015,05,17,16,47,19.40
2015,05,17,16,48,19.40
2015,05,17,16,49,19.40
2015,05,17,16,50,19.50
2015,05,17,16,51,19.60
2015,05,17,16,52,19.70
2015,05,17,16,53,19.60
2015,05,17,16,54,19.60
2015,05,17,16,55,19.60
2015,05,17,16,56,19.60
2015,05,17,16,57,19.70
2015,05,17,16,58,19.70
2015,05,17,16,59,19.70
2015,05,17,17,00,19.70
2015,05,17,17,01,19.60
2015,05,17,17,02,19.50
2015,05,17,17,03,19.50
2015,05,17,17,04,19.50
2015,05,17,17,05,19.50
2015,05,17,17,06,19.60
2015,05,17,17,07,19.70
2015,05,17,17,08,19.70
2015,05,17,17,09,19.80
2015,05,17,17,10,19.80
2015,05,17,17,11,19.80
2015,05,17,17,12,19.70
2015,05,17,17,13,19.70
2015,05,17,17,14,19.70
2015,05,17,17,15,19.50
2015,05,17,17,16,19.50
2015,05,17,17,17,19.40
2015,05,17,17,18,19.40
2015,05,17,17,19,19.40